This demonstration page uses our WeatherBlox Daily Observations layout. Learn more.

Left ArrowRight Arrow

38.20091, -84.87328

Hourly Observations for August 20, 2017

Temp ( °F °C ) Dew Point ( °F °C ) Humidity (%) Winds ( mph kmh ) Pressure ( in mb ) Visibility ( mi km ) Precip ( " mm )
12:53 am 00:53 Clear 72 22.2 67 19.4 84 84 Calm 29.98 1015 10 16 0.00 0.00
1:53 am 01:53 Partly Cloudy 72 22.2 67 19.4 84 84 Calm 29.99 1016 9 14 0.00 0.00
2:53 am 02:53 Clear 69 20.6 66 18.9 90 90 Calm 29.99 1016 8 13 0.00 0.00
3:53 am 03:53 Clear 68 20 65 18.3 90 90 Calm 30.00 1016 8 13 0.00 0.00
4:53 am 04:53 Clear 68 20 65 18.3 90 90 Calm 30.01 1016 8 13 0.00 0.00
5:53 am 05:53 Clear 67 19.4 64 17.8 91 91 Calm 30.01 1016 8 13 0.00 0.00
6:53 am 06:53 Clear 67 19.4 64 17.8 91 91 Calm 30.03 1017 7 11 0.00 0.00
7:53 am 07:53 Sunny with Mist and Fog 69 20.6 66 18.9 90 90 Calm 30.04 1017 6 10 0.00 0.00
8:53 am 08:53 Sunny 75 23.9 67 19.4 76 76 Calm 30.06 1018 10 16 0.00 0.00
9:53 am 09:53 Sunny 80 26.7 69 20.6 69 69 Calm 30.07 1018 10 16 0.00 0.00
10:53 am 10:53 Mostly Sunny 83 28.3 70 21.1 65 65 VRB 3 6 30.07 1018 10 16 0.00 0.00
11:53 am 11:53 Sunny 85 29.4 68 20 57 57 VRB 3 6 30.09 1019 10 16 0.00 0.00
12:53 pm 12:53 Mostly Sunny 87 30.6 68 20 53 53 SSW 6 9 30.08 1019 10 16 0.00 0.00
1:53 pm 13:53 Mostly Sunny 88 31.1 66 18.9 48 48 S 9 15 30.07 1018 10 16 0.00 0.00
2:53 pm 14:53 Mostly Cloudy 89 31.7 66 18.9 47 47 SW 8 13 30.05 1018 10 16 0.00 0.00
3:53 pm 15:53 Mostly Cloudy 89 31.7 64 17.8 43 43 SW 7 11 30.04 1017 10 16 0.00 0.00
4:53 pm 16:53 Partly Cloudy 89 31.7 64 17.8 43 43 VRB 3 6 30.03 1017 10 16 0.00 0.00
5:53 pm 17:53 Mostly Cloudy 87 30.6 65 18.3 48 48 WSW 6 9 30.04 1017 10 16 0.00 0.00
6:53 pm 18:53 Sunny 87 30.6 64 17.8 46 46 SW 7 11 30.04 1017 10 16 0.00 0.00
7:53 pm 19:53 Mostly Cloudy 84 28.9 67 19.4 57 57 SSW 3 6 30.06 1018 10 16 0.00 0.00
8:53 pm 20:53 Clear 79 26.1 68 20 69 69 Calm 30.06 1018 10 16 0.00 0.00
9:53 pm 21:53 Clear 76 24.4 67 19.4 74 74 Calm 30.07 1018 10 16 0.00 0.00
10:53 pm 22:53 Clear 75 23.9 67 19.4 76 76 Calm 30.08 1019 10 16 0.00 0.00
11:53 pm 23:53 Clear 75 23.9 67 19.4 76 76 Calm 30.09 1019 10 16 0.00 0.00

Powered by AerisWeather